Location: Windsor
(43.2292°N, 89.3015°W)
Time: 06:01:22
(UTC+00:00)

RS-44 - Pass Details

Date: 28 June 2022
Orbit: 1175 x 1510 km, 82.5° (Epoch: 14 August)

Event Time Altitude Azimuth Distance (km) Brightness Sun altitude
Rises 05:17:33 0° 258° (WSW) 4,377 ? -22.8°
Reaches altitude 10° 05:23:03 10° 289° (WNW) 3,494 ? -22.9°
Maximum altitude 05:25:47 12° 308° (NW) 3,397 ? -23.0°
Drops below altitude 10° 05:28:35 10° 328° (NNW) 3,573 ? -23.1°
Sets 05:34:28 0° 358° (N) 4,619 ? -23.2°
